CW1913 Weather Reports


time (UTC)temp
C
wind
direction
speed
KPH
gust
KPH
rain 1hr
cm
rain 24hr
cm
rain mn
cm
humidity
%
barometer
mb
20260504215138 27 59 4.8 12.9 0.00 0.00 0.00 54 1016.5
20260504214627 27 37 3.2 14.5 0.00 0.00 0.00 53 1016.5
20260504214126 27 188 4.8 14.5 0.00 0.00 0.00 53 1016.4
20260504213628 27 14 4.8 14.5 0.00 0.00 0.00 53 1016.5
20260504213147 27 123 4.8 12.9 0.00 0.00 0.00 52 1016.5
20260504212649 27 181 6.4 11.3 0.00 0.00 0.00 52 1016.6
20260504212127 27 165 3.2 11.3 0.00 0.00 0.00 52 1016.6
20260504211625 27 5 6.4 11.3 0.00 0.00 0.00 51 1016.5
20260504211126 27 144 6.4 11.3 0.00 0.00 0.00 51 1016.6
20260504210626 27 109 0.0 12.9 0.00 0.00 0.00 51 1016.7
20260504210143 27 105 3.2 12.9 0.00 0.00 0.00 50 1016.6
20260504205617 27 109 4.8 9.7 0.00 0.00 0.00 51 1016.7
20260504205124 27 147 3.2 12.9 0.00 0.00 0.00 52 1016.7
20260504204621 27 360 4.8 12.9 0.00 0.00 0.00 51 1016.7
20260504204141 27 19 4.8 11.3 0.00 0.00 0.00 51 1016.6
20260504203618 27 119 3.2 11.3 0.00 0.00 0.00 51 1016.8
20260504203119 27 70 1.6 14.5 0.00 0.00 0.00 52 1016.8
20260504202621 27 71 1.6 14.5 0.00 0.00 0.00 50 1016.8
20260504202126 27 125 4.8 9.7 0.00 0.00 0.00 51 1016.6
20260504201642 27 15 3.2 9.7 0.00 0.00 0.00 51 1016.8
20260504201205 27 102 4.8 11.3 0.00 0.00 0.00 51 1016.8
20260504200619 27 49 3.2 9.7 0.00 0.00 0.00 50 1016.9
20260504200136 27 11 4.8 9.7 0.00 0.00 0.00 50 1016.9
20260504195620 27 166 3.2 11.3 0.00 0.00 0.00 50 1017.1
20260504195138 27 88 0.0 8.0 0.00 0.00 0.00 49 1017.1
20260504194659 27 75 3.2 14.5 0.00 0.00 0.00 48 1017.2
20260504194119 28 79 4.8 11.3 0.00 0.00 0.00 49 1017.2
20260504193639 28 62 3.2 11.3 0.00 0.00 0.00 49 1017.2
20260504193115 28 108 3.2 12.9 0.00 0.00 0.00 49 1017.4
20260504192640 28 13 4.8 14.5 0.00 0.00 0.00 50 1017.5
20260504192137 27 109 4.8 14.5 0.00 0.00 0.00 51 1017.4
20260504191618 27 65 3.2 11.3 0.00 0.00 0.00 50 1017.5
20260504191119 27 117 3.2 12.9 0.00 0.00 0.00 50 1017.6
20260504190626 27 32 3.2 16.1 0.00 0.00 0.00 50 1017.7
20260504190126 27 26 3.2 16.1 0.00 0.00 0.00 50 1017.8
20260504185623 27 41 4.8 12.9 0.00 0.00 0.00 49 1017.8
20260504185124 27 51 3.2 12.9 0.00 0.00 0.00 49 1018.0
20260504184624 27 103 4.8 19.3 0.00 0.00 0.00 50 1018.1
20260504184125 27 101 6.4 16.1 0.00 0.00 0.00 51 1018.3
20260504183644 27 108 3.2 11.3 0.00 0.00 0.00 50 1018.3
20260504183137 27 94 1.6 14.5 0.00 0.00 0.00 50 1018.4
20260504182640 27 28 4.8 14.5 0.00 0.00 0.00 50 1018.4
20260504182136 27 197 3.2 11.3 0.00 0.00 0.00 50 1018.5
20260504181622 27 21 6.4 12.9 0.00 0.00 0.00 49 1018.5
20260504181143 27 9 3.2 16.1 0.00 0.00 0.00 48 1018.6
20260504180622 27 338 6.4 16.1 0.00 0.00 0.00 48 1018.7
20260504180146 28 92 4.8 14.5 0.00 0.00 0.00 46 1018.6
20260504175623 27 112 6.4 14.5 0.00 0.00 0.00 46 1018.6
20260504175147 27 180 4.8 11.3 0.00 0.00 0.00 47 1018.7
20260504174619 27 130 3.2 11.3 0.00 0.00 0.00 47 1018.8
20260504174141 27 5 1.6 11.3 0.00 0.00 0.00 50 1018.8
20260504173614 27 29 4.8 11.3 0.00 0.00 0.00 47 1018.9
20260504173118 27 146 4.8 11.3 0.00 0.00 0.00 46 1018.9
20260504172617 27 13 1.6 16.1 0.00 0.00 0.00 44 1018.9
20260504172120 27 192 8.0 16.1 0.00 0.00 0.00 46 1019.0
20260504171642 27 9 4.8 12.9 0.00 0.00 0.00 45 1019.1
20260504171115 26 316 3.2 17.7 0.00 0.00 0.00 48 1019.0
20260504170642 26 74 4.8 17.7 0.00 0.00 0.00 48 1019.0
20260504170121 26 69 3.2 12.9 0.00 0.00 0.00 48 1019.2
20260504160118 26 72 1.6 12.9 0.00 0.00 0.00 47 1019.8
20260504151136 25 345 4.8 11.3 0.00 0.00 0.00 55 1020.1
20260504150643 25 5 3.2 12.9 0.00 0.00 0.00 56 1020.1
20260504150119 25 37 6.4 12.9 0.00 0.00 0.00 56 1020.1
20260504141132 23 20 3.2 12.9 0.00 0.00 0.00 65 1020.1
20260504140632 23 46 3.2 12.9 0.00 0.00 0.00 65 1020.1
20260504140115 23 105 3.2 11.3 0.00 0.00 0.00 67 1020.1
20260504130703 21 70 4.8 14.5 0.00 0.00 0.00 79 1019.7
20260504130118 21 42 3.2 11.3 0.00 0.00 0.00 81 1019.7
20260504120142 17 28 1.6 9.7 0.00 0.00 0.00 90 1019.5
20260504110642 16 21 0.0 1.6 0.00 0.00 0.00 90 1019.1
20260504110138 16 21 0.0 0.0 0.00 0.00 0.00 90 1019.0
20260504100126 16 24 0.0 0.0 0.00 0.00 0.00 90 1018.7
20260504090125 16 24 0.0 4.8 0.00 0.00 0.00 90 1018.8
20260504081620 17 24 0.0 0.0 0.00 0.00 0.00 90 1018.7
20260504081141 17 24 0.0 0.0 0.00 0.00 0.00 90 1018.8
20260504080642 17 24 0.0 0.0 0.00 0.00 0.00 90 1018.9
20260504080142 17 24 0.0 0.0 0.00 0.00 0.00 90 1018.9
20260504070119 17 24 0.0 1.6 0.00 0.00 0.00 87 1019.0
20260504060122 18 38 0.0 3.2 0.00 0.00 0.00 85 1019.3
20260504050643 18 46 0.0 3.2 0.00 0.00 0.00 83 1019.8
20260504050121 18 46 0.0 0.0 0.00 0.00 0.00 83 1019.9
20260504045643 18 46 0.0 0.0 0.00 0.00 0.00 83 1020.0
20260504045202 18 46 0.0 0.0 0.00 0.00 0.00 83 1020.0
20260504044615 18 46 0.0 0.0 0.00 0.00 0.00 82 1020.1
20260504044125 18 46 0.0 0.0 0.00 0.00 0.00 82 1020.1
20260504043647 18 46 0.0 0.0 0.00 0.00 0.00 81 1020.2
20260504043125 18 46 0.0 0.0 0.00 0.00 0.00 82 1020.2
20260504042643 19 46 0.0 0.0 0.00 0.00 0.00 81 1020.1
20260504042142 19 46 0.0 4.8 0.00 0.00 0.00 81 1020.2
20260504041624 19 46 0.0 4.8 0.00 0.00 0.00 80 1020.1
20260504041123 19 46 0.0 6.4 0.00 0.00 0.00 80 1020.0
20260504040625 19 46 1.6 6.4 0.00 0.00 0.00 80 1020.1
20260504040125 19 49 0.0 1.6 0.00 0.00 0.00 80 1020.1
20260504035642 19 49 0.0 1.6 0.00 0.00 0.00 80 1020.2
20260504035119 19 49 0.0 1.6 0.00 0.00 0.00 80 1020.2
20260504034635 19 49 0.0 1.6 0.00 0.00 0.00 79 1020.1
20260504034122 19 49 0.0 0.0 0.00 0.00 0.00 79 1020.1
20260504033646 19 49 0.0 1.6 0.00 0.00 0.00 79 1020.1
20260504033208 19 50 0.0 3.2 0.00 0.00 0.00 79 1020.1
20260504032646 19 50 0.0 4.8 0.00 0.00 0.00 78 1019.9
20260504032147 19 55 0.0 4.8 0.00 0.00 0.00 78 1020.0
20260504031644 19 56 1.6 4.8 0.00 0.00 0.00 78 1019.9
20260504031119 19 64 0.0 4.8 0.00 0.00 0.00 78 1019.9
20260504030640 19 28 0.0 6.4 0.00 0.00 0.00 78 1019.9
20260504030118 19 31 1.6 6.4 0.00 0.00 0.00 78 1019.9
20260504025639 19 30 1.6 6.4 0.00 0.00 0.00 77 1020.0
20260504025114 19 42 1.6 6.4 0.00 0.00 0.00 78 1019.9
20260504024624 19 61 0.0 4.8 0.00 0.00 0.00 77 1019.9
20260504024125 19 69 0.0 6.4 0.00 0.00 0.00 78 1019.9
20260504023626 19 62 1.6 6.4 0.00 0.00 0.00 78 1019.9
20260504023125 19 43 1.6 4.8 0.00 0.00 0.00 78 1019.9
20260504022646 20 95 0.0 4.8 0.00 0.00 0.00 78 1019.8
20260504022145 20 98 1.6 6.4 0.00 0.00 0.00 78 1019.9
20260504021617 20 49 1.6 6.4 0.00 0.00 0.00 78 1019.7
20260504021133 20 48 0.0 3.2 0.00 0.00 0.00 77 1019.7
20260504020617 20 48 0.0 4.8 0.00 0.00 0.00 77 1019.8
20260504020117 20 50 0.0 4.8 0.00 0.00 0.00 76 1019.7
20260504015619 20 93 1.6 6.4 0.00 0.00 0.00 76 1019.6
20260504015146 20 30 0.0 8.0 0.00 0.00 0.00 76 1019.5
20260504014646 20 57 0.0 11.3 0.00 0.00 0.00 76 1019.4
20260504014119 20 48 1.6 8.0 0.00 0.00 0.00 75 1019.4
20260504013640 20 30 1.6 8.0 0.00 0.00 0.00 75 1019.4
20260504013125 20 40 1.6 8.0 0.00 0.00 0.00 75 1019.2
20260504012625 20 62 1.6 4.8 0.00 0.00 0.00 75 1019.1
20260504012127 20 90 1.6 8.0 0.00 0.00 0.00 74 1019.2
20260504011619 20 92 1.6 8.0 0.00 0.00 0.00 74 1019.0
20260504011123 21 60 1.6 8.0 0.00 0.00 0.00 73 1019.0
20260504010631 21 22 1.6 6.4 0.00 0.00 0.00 73 1019.0
20260504010121 21 34 0.0 11.3 0.00 0.00 0.00 72 1018.9
20260504005647 21 27 3.2 11.3 0.00 0.00 0.00 71 1018.9
20260504005145 21 75 1.6 6.4 0.00 0.00 0.00 71 1018.8
20260504004625 21 42 1.6 9.7 0.00 0.00 0.00 70 1018.7
20260504004144 21 5 1.6 8.0 0.00 0.00 0.00 70 1018.6
20260504003614 21 69 1.6 9.7 0.00 0.00 0.00 69 1018.6
20260504003142 21 34 3.2 8.0 0.00 0.00 0.00 69 1018.6
20260504002617 21 43 0.0 6.4 0.00 0.00 0.00 68 1018.6
20260504002117 22 24 1.6 4.8 0.00 0.00 0.00 67 1018.7
20260504001632 22 24 0.0 4.8 0.00 0.00 0.00 67 1018.7
20260504001118 22 24 0.0 4.8 0.00 0.00 0.00 67 1018.6
20260504000625 22 24 0.0 6.4 0.00 0.00 0.00 66 1018.6
20260504000145 22 65 1.6 6.4 0.00 0.00 0.00 66 1018.6
20260503235622 22 26 3.2 6.4 0.00 0.00 0.00 65 1018.4
20260503235141 22 44 3.2 6.4 0.00 0.00 0.00 65 1018.5
20260503234619 22 60 1.6 6.4 0.00 0.00 0.00 65 1018.4
20260503234119 22 84 1.6 6.4 0.00 0.00 0.00 65 1018.4
20260503233643 22 20 0.0 6.4 0.00 0.00 0.00 65 1018.2
20260503233207 22 55 0.0 8.0 0.00 0.00 0.00 64 1018.1
20260503232637 23 96 1.6 8.0 0.00 0.00 0.00 64 1018.2
20260503232129 23 51 0.0 3.2 0.00 0.00 0.00 64 1018.2
20260503231646 23 51 0.0 3.2 0.00 0.00 0.00 63 1018.2
20260503231138 23 51 0.0 6.4 0.00 0.00 0.00 63 1018.1
20260503230642 23 50 1.6 8.0 0.00 0.00 0.00 63 1018.1
20260503230207 23 69 0.0 8.0 0.00 0.00 0.00 63 1018.1
20260503225641 23 49 3.2 11.3 0.00 0.00 0.00 63 1018.1
20260503225127 23 57 4.8 11.3 0.00 0.00 0.00 63 1018.1
20260503224623 23 70 3.2 11.3 0.00 0.00 0.00 63 1018.1
20260503224122 23 23 1.6 8.0 0.00 0.00 0.00 63 1018.1
20260503223624 23 50 3.2 8.0 0.00 0.00 0.00 63 1018.1
20260503223123 23 46 1.6 14.5 0.00 0.00 0.00 63 1018.1
20260503222624 23 5 4.8 14.5 0.00 0.00 0.00 63 1018.2
20260503222123 24 29 4.8 9.7 0.00 0.00 0.00 62 1018.2
20260503221640 24 25 3.2 9.7 0.00 0.00 0.00 62 1018.2
20260503221138 24 26 4.8 9.7 0.00 0.00 0.00 61 1018.1
20260503220619 24 64 1.6 11.3 0.00 0.00 0.00 62 1018.1
20260503220120 24 345 3.2 11.3 0.00 0.00 0.00 61 1018.1
20260503215619 24 19 1.6 8.0 0.00 0.00 0.00 61 1018.1